Weather History for Fairfield, IA

Change the Weather History Date:

Wednesday, May 22, 2013

  Actual Average Record
Temperature  
Mean Temperature 60 °F -  
Max Temperature 64 °F 75 °F 91 °F (1972)
Min Temperature 55 °F 53 °F 40 °F (1976)
Degree Days  
Heating Degree Days 6    
Growing Degree Days 10 (Base 50)    
Moisture  
Dew Point 53 °F    
Average Humidity 78    
Maximum Humidity 94    
Minimum Humidity 64    
Precipitation  
Precipitation 0.16 in - - ()
Sea Level Pressure  
Sea Level Pressure 29.74 in    
Wind  
Wind Speed 7 mph (West)    
Max Wind Speed 16 mph    
Max Gust Speed 22 mph    
Visibility 10 miles    
Events Rain    
Averages and records for this station are not official NWS values.
T = Trace of Precipitation, MM = Missing Value Source: NWS Daily Summary

Daily Weather History Graph

Daily Weather History Graph

Search for Another Location

Airport:

Trip Planner

Search our weather history database for the weather conditions in past years. The results will help you decide how hot, cold, wet, or windy it might be!

Date:

Astronomy

May. 22, 2013 Rise Set
Actual Time 5:43 AM CDT 8:26 PM CDT
Civil Twilight 5:11 AM CDT 8:58 PM CDT
Nautical Twilight 4:31 AM CDT 9:38 PM CDT
Astronomical Twilight 3:46 AM CDT 10:24 PM CDT
Moon 5:47 PM CDT (5/22) 3:49 AM CDT (5/22)
Length of Visible Light 15h 46m
Length of Day
14h 42m
Waxing Gibbous, 91% of the Moon is Illuminated
May 22
Waxing Gibbous
May 24
Full
May 31
Last Quarter
Jun 8
New
Jun 16
First Quarter

Hourly Weather History & Observations

Time (CDT) Temp. Dew Point Humidity Pressure Visibility Wind Dir Wind Speed Gust Speed Precip Events Conditions
12:15 AM 62.6 °F 51.8 °F 68% 29.70 in 10.0 mi WNW 4.6 mph - N/A   Mostly Cloudy
12:35 AM 60.8 °F 51.8 °F 72% 29.70 in 10.0 mi WNW 4.6 mph - N/A   Scattered Clouds
12:55 AM 60.8 °F 51.8 °F 72% 29.70 in 10.0 mi WNW 5.8 mph - N/A   Clear
1:15 AM 59.0 °F 51.8 °F 77% 29.69 in 10.0 mi WNW 5.8 mph - N/A   Mostly Cloudy
1:35 AM 59.0 °F 51.8 °F 77% 29.70 in 10.0 mi Calm Calm - N/A   Partly Cloudy
1:55 AM 59.0 °F 50.0 °F 72% 29.70 in 10.0 mi Calm Calm - N/A   Partly Cloudy
2:15 AM 57.2 °F 51.8 °F 82% 29.70 in 10.0 mi Calm Calm - N/A   Mostly Cloudy
2:35 AM 59.0 °F 51.8 °F 77% 29.69 in 10.0 mi SSW 3.5 mph - N/A   Overcast
2:55 AM 59.0 °F 51.8 °F 77% 29.69 in 10.0 mi SW 4.6 mph - N/A   Overcast
3:15 AM 59.0 °F 53.6 °F 82% 29.69 in 10.0 mi SW 4.6 mph - N/A   Overcast
3:35 AM 59.0 °F 53.6 °F 82% 29.68 in 10.0 mi Calm Calm - N/A   Mostly Cloudy
3:55 AM 59.0 °F 53.6 °F 82% 29.67 in 10.0 mi Calm Calm - N/A   Overcast
4:15 AM 57.2 °F 53.6 °F 88% 29.67 in - West 3.5 mph - N/A   Mostly Cloudy
4:35 AM 57.2 °F 53.6 °F 88% 29.68 in 10.0 mi WSW 4.6 mph - N/A   Mostly Cloudy
4:55 AM 57.2 °F 51.8 °F 82% 29.68 in 10.0 mi SW 3.5 mph - N/A   Mostly Cloudy
5:15 AM 57.2 °F 51.8 °F 82% 29.67 in 10.0 mi West 6.9 mph - N/A   Mostly Cloudy
5:35 AM 57.2 °F 51.8 °F 82% 29.67 in 10.0 mi WSW 4.6 mph - N/A   Mostly Cloudy
5:55 AM 55.4 °F 51.8 °F 88% 29.67 in 10.0 mi West 6.9 mph - N/A   Partly Cloudy
6:15 AM 55.4 °F 50.0 °F 82% 29.68 in 10.0 mi West 5.8 mph - N/A   Clear
6:35 AM 55.4 °F 50.0 °F 82% 29.68 in 10.0 mi West 6.9 mph - N/A   Clear
6:55 AM 57.2 °F 51.8 °F 82% 29.68 in 10.0 mi West 6.9 mph - N/A   Clear
7:15 AM 57.2 °F 51.8 °F 82% 29.69 in 10.0 mi West 6.9 mph - N/A   Partly Cloudy
7:35 AM 59.0 °F 51.8 °F 77% 29.68 in 10.0 mi West 8.1 mph - N/A   Scattered Clouds
7:55 AM 57.2 °F 51.8 °F 82% 29.69 in 10.0 mi West 5.8 mph - N/A   Partly Cloudy
8:15 AM 59.0 °F 53.6 °F 82% 29.69 in 10.0 mi West 8.1 mph - N/A   Scattered Clouds
8:35 AM 60.8 °F 53.6 °F 77% 29.70 in 10.0 mi West 13.8 mph - N/A   Scattered Clouds
8:55 AM 59.0 °F 53.6 °F 82% 29.71 in 10.0 mi West 9.2 mph - N/A   Mostly Cloudy
9:15 AM 59.0 °F 51.8 °F 77% 29.71 in 10.0 mi West 11.5 mph 17.3 mph N/A   Overcast
9:35 AM 60.8 °F 51.8 °F 72% 29.71 in 10.0 mi West 11.5 mph - N/A   Overcast
9:55 AM 60.8 °F 51.8 °F 72% 29.71 in 10.0 mi West 10.4 mph - N/A   Overcast
10:15 AM 60.8 °F 53.6 °F 77% 29.71 in 10.0 mi WSW 9.2 mph - N/A   Overcast
10:35 AM 62.6 °F 53.6 °F 72% 29.71 in 10.0 mi SW 12.7 mph - N/A   Overcast
10:55 AM 62.6 °F 51.8 °F 68% 29.71 in 10.0 mi West 13.8 mph - N/A   Mostly Cloudy
11:15 AM 62.6 °F 51.8 °F 68% 29.72 in 10.0 mi WSW 13.8 mph - N/A   Overcast
11:35 AM 62.6 °F 51.8 °F 68% 29.72 in 10.0 mi WSW 16.1 mph - N/A   Overcast
11:55 AM 62.6 °F 51.8 °F 68% 29.72 in 10.0 mi West 13.8 mph - N/A   Overcast
12:15 PM 62.6 °F 51.8 °F 68% 29.72 in 10.0 mi WSW 16.1 mph - N/A   Overcast
12:35 PM 62.6 °F 51.8 °F 68% 29.73 in 10.0 mi West 12.7 mph 18.4 mph N/A   Overcast
12:55 PM 62.6 °F 51.8 °F 68% 29.73 in 10.0 mi WSW 15.0 mph 20.7 mph N/A   Overcast
1:15 PM 64.4 °F 51.8 °F 64% 29.73 in 10.0 mi West 15.0 mph 20.7 mph N/A   Overcast
1:35 PM 62.6 °F 51.8 °F 68% 29.73 in 10.0 mi WSW 13.8 mph 19.6 mph N/A   Overcast
1:55 PM 64.4 °F 51.8 °F 64% 29.73 in 10.0 mi WSW 16.1 mph - N/A   Overcast
2:15 PM 62.6 °F 51.8 °F 68% 29.74 in 10.0 mi West 16.1 mph - N/A   Overcast
2:35 PM 62.6 °F 51.8 °F 68% 29.74 in 10.0 mi West 16.1 mph - N/A   Overcast
2:55 PM 62.6 °F 53.6 °F 72% 29.75 in 10.0 mi West 13.8 mph 20.7 mph N/A   Overcast
3:15 PM 62.6 °F 53.6 °F 72% 29.75 in 10.0 mi WSW 15.0 mph - N/A   Overcast
3:35 PM 64.4 °F 51.8 °F 64% 29.75 in 10.0 mi WSW 15.0 mph - N/A   Overcast
3:55 PM 64.4 °F 53.6 °F 68% 29.75 in 10.0 mi WSW 11.5 mph 19.6 mph N/A   Overcast
4:15 PM 64.4 °F 51.8 °F 64% 29.75 in 10.0 mi West 12.7 mph 21.9 mph N/A   Overcast
4:35 PM 64.4 °F 53.6 °F 68% 29.75 in 10.0 mi West 12.7 mph - N/A   Mostly Cloudy
4:55 PM 62.6 °F 53.6 °F 72% 29.75 in 10.0 mi WSW 11.5 mph - N/A   Overcast
5:15 PM 62.6 °F 53.6 °F 72% 29.76 in 10.0 mi WSW 15.0 mph - N/A   Overcast
5:35 PM 62.6 °F 53.6 °F 72% 29.77 in 10.0 mi WSW 12.7 mph - N/A   Mostly Cloudy
5:55 PM 59.0 °F 55.4 °F 88% 29.78 in 1.8 mi WSW 12.7 mph - 0.01 in Rain Light Rain
6:15 PM 59.0 °F 55.4 °F 88% 29.78 in 10.0 mi West 8.1 mph - N/A   Mostly Cloudy
6:35 PM 59.0 °F 57.2 °F 94% 29.78 in 3.0 mi WSW 8.1 mph 13.8 mph N/A   Light Drizzle
6:55 PM 59.0 °F 57.2 °F 94% 29.78 in 9.0 mi WSW 8.1 mph - 0.02 in   Overcast
7:15 PM 59.0 °F 57.2 °F 94% 29.78 in 1.8 mi NW 5.8 mph - N/A Rain Heavy Rain
7:35 PM 59.0 °F 55.4 °F 88% 29.79 in 10.0 mi West 8.1 mph - N/A   Overcast
7:55 PM 59.0 °F 55.4 °F 88% 29.79 in 10.0 mi WSW 10.4 mph - 0.13 in   Overcast
8:15 PM 59.0 °F 55.4 °F 88% 29.80 in 10.0 mi West 8.1 mph - N/A   Overcast
8:35 PM 59.0 °F 55.4 °F 88% 29.81 in 10.0 mi West 8.1 mph - N/A   Mostly Cloudy
8:55 PM 59.0 °F 55.4 °F 88% 29.81 in 10.0 mi West 10.4 mph 16.1 mph N/A   Overcast
9:15 PM 57.2 °F 53.6 °F 88% 29.82 in 10.0 mi West 9.2 mph - N/A   Overcast
9:35 PM 57.2 °F 53.6 °F 88% 29.82 in 10.0 mi West 9.2 mph - N/A   Overcast
9:55 PM 57.2 °F 51.8 °F 82% 29.83 in 10.0 mi West 12.7 mph - N/A   Overcast
10:15 PM 57.2 °F 51.8 °F 82% 29.84 in 10.0 mi West 10.4 mph - N/A   Overcast
10:35 PM 57.2 °F 51.8 °F 82% 29.84 in 10.0 mi West 11.5 mph 17.3 mph N/A   Overcast
10:55 PM 57.2 °F 51.8 °F 82% 29.85 in 10.0 mi West 10.4 mph - N/A   Overcast
11:15 PM 57.2 °F 51.8 °F 82% 29.85 in 10.0 mi West 10.4 mph - N/A   Overcast
11:35 PM 57.2 °F 51.8 °F 82% 29.85 in - West 12.7 mph - N/A   Overcast
11:55 PM 57.2 °F 51.8 °F 82% 29.85 in 10.0 mi West 12.7 mph - N/A   Overcast